GW5072 Weather Reports


time (UTC)temp
C
wind
direction
speed
KPH
gust
KPH
rain 1hr
cm
rain 24hr
cm
rain mn
cm
humidity
%
barometer
mb
20260505002009 24 120 0.0 6.4 0.00 0.00 0.00 73 1010.4
20260505001528 24 187 1.6 6.4 0.00 0.00 0.00 73 1010.4
20260505001002 24 117 0.0 11.3 0.00 0.00 0.00 71 1010.4
20260505000506 24 121 0.0 11.3 0.00 0.00 0.00 71 1010.5
20260505000008 25 238 0.0 11.3 0.00 0.00 0.00 71 1010.6
20260504235502 25 162 3.2 11.3 0.00 0.00 0.00 70 1010.6
20260504235006 25 220 0.0 17.7 0.00 0.00 0.00 70 1010.6
20260504234504 25 203 0.0 17.7 0.00 0.00 0.00 70 1010.6
20260504234002 25 86 1.6 9.7 0.00 0.00 0.00 69 1010.6
20260504233502 25 118 0.0 4.8 0.00 0.00 0.00 69 1010.4
20260504233003 25 179 0.0 4.8 0.00 0.00 0.00 68 1010.6
20260504232506 25 115 0.0 6.4 0.00 0.00 0.00 67 1010.7
20260504232002 25 122 1.6 6.4 0.00 0.00 0.00 66 1010.7
20260504231503 26 184 0.0 6.4 0.00 0.00 0.00 67 1010.7
20260504231005 26 109 0.0 4.8 0.00 0.00 0.00 66 1010.8
20260504230502 26 167 0.0 9.7 0.00 0.00 0.00 66 1010.9
20260504230020 26 119 1.6 9.7 0.00 0.00 0.00 65 1010.9
20260504225504 26 102 1.6 6.4 0.00 0.00 0.00 65 1011.1
20260504225001 26 104 3.2 6.4 0.00 0.00 0.00 65 1011.2
20260504224515 26 85 1.6 6.4 0.00 0.00 0.00 64 1011.0
20260504224003 26 112 1.6 8.0 0.00 0.00 0.00 64 1011.0
20260504223503 26 122 1.6 8.0 0.00 0.00 0.00 64 1011.0
20260504223013 26 103 1.6 6.4 0.00 0.00 0.00 63 1011.2
20260504222504 26 71 1.6 8.0 0.00 0.00 0.00 64 1011.1
20260504222005 26 210 0.0 8.0 0.00 0.00 0.00 63 1011.2
20260504221510 26 109 1.6 8.0 0.00 0.00 0.00 64 1011.2
20260504221002 26 218 0.0 16.1 0.00 0.00 0.00 63 1011.3
20260504220506 26 210 0.0 16.1 0.00 0.00 0.00 63 1011.5
20260504220009 26 205 0.0 9.7 0.00 0.00 0.00 62 1011.4
20260504215502 26 120 3.2 9.7 0.00 0.00 0.00 60 1011.4
20260504215007 27 136 1.6 6.4 0.00 0.00 0.00 61 1011.5
20260504214504 27 98 1.6 8.0 0.00 0.00 0.00 60 1011.5
20260504214007 27 83 3.2 8.0 0.00 0.00 0.00 61 1011.6
20260504213503 27 188 0.0 4.8 0.00 0.00 0.00 61 1011.8
20260504213004 28 102 0.0 4.8 0.00 0.00 0.00 59 1011.7
20260504212506 28 122 0.0 4.8 0.00 0.00 0.00 58 1011.8
20260504212003 28 212 0.0 9.7 0.00 0.00 0.00 59 1011.9
20260504211503 27 121 1.6 9.7 0.00 0.00 0.00 58 1011.9
20260504211006 27 259 0.0 8.0 0.00 0.00 0.00 62 1012.0
20260504210503 27 239 1.6 6.4 0.00 0.00 0.00 59 1012.2
20260504210027 27 227 1.6 8.0 0.00 0.00 0.00 59 1012.1
20260504205506 28 105 1.6 8.0 0.00 0.00 0.00 59 1012.1
20260504205004 27 115 1.6 8.0 0.00 0.00 0.00 59 1012.2
20260504204519 27 186 0.0 4.8 0.00 0.00 0.00 60 1012.4
20260504204003 26 218 0.0 8.0 0.00 0.00 0.00 60 1012.6
20260504203510 27 120 1.6 8.0 0.00 0.00 0.00 58 1012.6
20260504203021 27 89 1.6 12.9 0.00 0.00 0.00 58 1012.7
20260504202504 27 203 0.0 12.9 0.00 0.00 0.00 63 1012.8
20260504202008 27 89 3.2 9.7 0.00 0.00 0.00 60 1012.8
20260504201515 27 226 0.0 4.8 0.00 0.00 0.00 59 1013.1
20260504201005 27 263 0.0 6.4 0.00 0.00 0.00 60 1013.2
20260504200507 27 298 1.6 8.0 0.00 0.00 0.00 60 1013.3
20260504200008 27 264 1.6 8.0 0.00 0.00 0.00 58 1013.3
20260504195508 27 209 1.6 6.4 0.00 0.00 0.00 60 1013.4
20260504195009 27 294 0.0 11.3 0.00 0.00 0.00 61 1013.5
20260504194508 27 221 1.6 11.3 0.00 0.00 0.00 58 1013.6
20260504194006 27 149 3.2 11.3 0.00 0.00 0.00 60 1013.6
20260504193509 27 204 3.2 11.3 0.00 0.00 0.00 60 1013.6
20260504193012 26 162 0.0 9.7 0.00 0.00 0.00 59 1013.7
20260504192508 26 243 1.6 14.5 0.00 0.00 0.00 59 1013.8
20260504192003 27 85 3.2 14.5 0.00 0.00 0.00 59 1013.8
20260504191526 27 116 1.6 4.8 0.00 0.00 0.00 57 1013.8
20260504191006 27 115 1.6 8.0 0.00 0.00 0.00 56 1014.0
20260504190504 27 219 1.6 8.0 0.00 0.00 0.00 58 1014.1
20260504190021 27 203 1.6 6.4 0.00 0.00 0.00 57 1014.2
20260504185503 27 212 1.6 8.0 0.00 0.00 0.00 57 1014.3
20260504185007 27 274 3.2 8.0 0.00 0.00 0.00 56 1014.2
20260504184519 27 94 0.0 12.9 0.00 0.00 0.00 58 1014.2
20260504184003 27 233 1.6 12.9 0.00 0.00 0.00 59 1014.2
20260504183512 26 125 1.6 11.3 0.00 0.00 0.00 57 1014.5
20260504183017 26 122 0.0 11.3 0.00 0.00 0.00 60 1014.5
20260504182505 27 206 1.6 11.3 0.00 0.00 0.00 56 1014.6
20260504182011 27 95 1.6 11.3 0.00 0.00 0.00 58 1014.5
20260504181513 27 148 1.6 11.3 0.00 0.00 0.00 56 1014.5
20260504181008 26 264 3.2 11.3 0.00 0.00 0.00 60 1014.6
20260504180509 26 238 1.6 8.0 0.00 0.00 0.00 62 1014.7
20260504180012 26 143 1.6 9.7 0.00 0.00 0.00 63 1014.8
20260504175508 26 184 1.6 14.5 0.00 0.00 0.00 60 1014.8
20260504175004 26 167 3.2 14.5 0.00 0.00 0.00 60 1014.9
20260504174510 26 197 1.6 8.0 0.00 0.00 0.00 60 1015.1
20260504174009 26 127 1.6 8.0 0.00 0.00 0.00 59 1015.0
20260504173506 26 163 1.6 9.7 0.00 0.00 0.00 59 1015.0
20260504173026 25 143 0.0 12.9 0.00 0.00 0.00 63 1015.2
20260504172505 25 216 3.2 12.9 0.00 0.00 0.00 61 1015.3
20260504172004 25 182 1.6 8.0 0.00 0.00 0.00 61 1015.2
20260504171523 25 129 1.6 6.4 0.00 0.00 0.00 62 1015.3
20260504171009 25 75 1.6 11.3 0.00 0.00 0.00 63 1015.4
20260504170505 25 34 3.2 11.3 0.00 0.00 0.00 61 1015.5
20260504151005 21 194 1.6 11.3 0.00 0.00 0.00 71 1016.3
20260504150504 21 238 1.6 8.0 0.00 0.00 0.00 72 1016.3
20260504141003 18 185 0.0 6.4 0.00 0.00 0.00 80 1016.3
20260504140502 18 216 0.0 6.4 0.00 0.00 0.00 79 1016.3
20260504130504 14 91 0.0 0.0 0.00 0.00 0.00 92 1016.1
20260504110506 13 91 0.0 0.0 0.00 0.00 0.00 91 1015.5
20260504100510 13 91 0.0 0.0 0.00 0.00 0.00 89 1016.0
20260504082007 13 91 0.0 0.0 0.00 0.00 0.00 87 1016.5
20260504081519 13 91 0.0 0.0 0.00 0.00 0.00 87 1016.6
20260504081002 14 91 0.0 0.0 0.00 0.00 0.00 86 1016.5
20260504080506 14 91 0.0 0.0 0.00 0.00 0.00 86 1016.6
20260504050511 14 91 0.0 0.0 0.00 0.00 0.00 84 1018.7
20260504045507 15 91 0.0 0.0 0.00 0.00 0.00 83 1018.6
20260504045007 15 91 0.0 0.0 0.00 0.00 0.00 83 1018.6
20260504044524 15 91 0.0 0.0 0.00 0.00 0.00 83 1018.7
20260504044006 15 91 0.0 0.0 0.00 0.00 0.00 82 1018.7
20260504043507 15 91 0.0 0.0 0.00 0.00 0.00 82 1018.9
20260504043025 15 91 0.0 0.0 0.00 0.00 0.00 80 1018.8
20260504042510 15 91 0.0 0.0 0.00 0.00 0.00 81 1018.7
20260504042011 15 91 0.0 0.0 0.00 0.00 0.00 80 1018.8
20260504041520 15 91 0.0 0.0 0.00 0.00 0.00 80 1018.7
20260504041010 15 91 0.0 0.0 0.00 0.00 0.00 79 1018.8
20260504040507 15 91 0.0 0.0 0.00 0.00 0.00 78 1018.9
20260504040019 16 91 0.0 0.0 0.00 0.00 0.00 77 1018.8
20260504035511 16 91 0.0 0.0 0.00 0.00 0.00 78 1018.8
20260504035010 16 91 0.0 0.0 0.00 0.00 0.00 78 1018.9
20260504034528 16 91 0.0 0.0 0.00 0.00 0.00 78 1018.7
20260504034014 16 91 0.0 1.6 0.00 0.00 0.00 77 1018.8
20260504033508 16 91 0.0 1.6 0.00 0.00 0.00 79 1018.8
20260504033026 16 91 0.0 0.0 0.00 0.00 0.00 77 1018.7
20260504032510 16 91 0.0 0.0 0.00 0.00 0.00 76 1018.8
20260504032007 16 91 0.0 0.0 0.00 0.00 0.00 77 1018.7
20260504031529 16 91 0.0 0.0 0.00 0.00 0.00 77 1018.7
20260504031012 16 91 0.0 0.0 0.00 0.00 0.00 74 1018.6
20260504030506 17 91 0.0 0.0 0.00 0.00 0.00 74 1018.6
20260504030028 17 91 0.0 0.0 0.00 0.00 0.00 74 1018.5
20260504025508 17 90 0.0 0.0 0.00 0.00 0.00 75 1018.5
20260504025005 17 90 0.0 0.0 0.00 0.00 0.00 76 1018.5
20260504024527 17 90 0.0 0.0 0.00 0.00 0.00 74 1018.4
20260504024007 17 90 0.0 0.0 0.00 0.00 0.00 72 1018.4
20260504023506 17 90 0.0 0.0 0.00 0.00 0.00 73 1018.3
20260504023024 17 90 0.0 0.0 0.00 0.00 0.00 74 1018.3
20260504022504 17 90 0.0 1.6 0.00 0.00 0.00 73 1018.3
20260504022010 17 90 0.0 1.6 0.00 0.00 0.00 73 1018.4
20260504021522 17 90 0.0 0.0 0.00 0.00 0.00 73 1018.3
20260504021008 17 90 0.0 0.0 0.00 0.00 0.00 75 1018.1
20260504020509 17 90 0.0 0.0 0.00 0.00 0.00 73 1018.0
20260504020020 17 90 0.0 0.0 0.00 0.00 0.00 73 1018.1
20260504015512 17 90 0.0 0.0 0.00 0.00 0.00 72 1018.1
20260504015016 17 90 0.0 0.0 0.00 0.00 0.00 71 1017.9
20260504014524 18 90 0.0 0.0 0.00 0.00 0.00 66 1017.8
20260504014010 18 90 0.0 0.0 0.00 0.00 0.00 67 1017.8
20260504013510 18 90 0.0 0.0 0.00 0.00 0.00 68 1017.8
20260504013015 19 90 0.0 0.0 0.00 0.00 0.00 68 1017.8
20260504012513 19 90 0.0 0.0 0.00 0.00 0.00 67 1017.8
20260504012010 19 90 0.0 1.6 0.00 0.00 0.00 65 1017.7
20260504011527 19 90 0.0 1.6 0.00 0.00 0.00 66 1017.7
20260504011010 19 101 0.0 1.6 0.00 0.00 0.00 64 1017.6
20260504010513 20 101 0.0 0.0 0.00 0.00 0.00 63 1017.6
20260504010028 20 101 0.0 0.0 0.00 0.00 0.00 60 1017.6
20260504005508 20 101 0.0 0.0 0.00 0.00 0.00 61 1017.7
20260504005008 21 101 0.0 0.0 0.00 0.00 0.00 60 1017.6
20260504004526 21 101 0.0 0.0 0.00 0.00 0.00 56 1017.7
20260504004008 21 101 0.0 0.0 0.00 0.00 0.00 56 1017.5
20260504003511 22 101 0.0 0.0 0.00 0.00 0.00 56 1017.7
20260504003026 22 101 0.0 0.0 0.00 0.00 0.00 52 1017.7
20260504002503 23 101 0.0 0.0 0.00 0.00 0.00 53 1017.7